[[{"header":{"parameterUnit":"m.s-1","parameterCategory":1,"la1":30.2991,"la2":30.254,"lo1":-89.0895,"lo2":-89.0444,"dy":0.0017,"dx":0.0017,"nx":28,"ny":28,"refTime":"2024-02-21T03:00:00:Z","depth":0,"parameterNumber":2,"parameterNumberName":"U-component_of_WINDS"},"data":[0,0,0,0,0,0,0,0,0,0,0,0,0,0,0,0,0,0,0,0,0,0,0,0,0,0,0,0,0,0,0,0,0,0,0,0,0,0,0,0,0,0,0,0,0,0,0,0,0,0,0,0,0,0,0,0,0,0,-0.3966,-0.3966,0,-0.4031,-0.4032,-0.4033,-0.4086,-0.4087,-0.4087,-0.4088,-0.4155,-0.4157,-0.4158,0,0,0,0,0,0,0,0,0,0,0,0,0,-0.3885,-0.3887,-0.3965,-0.3966,-0.3967,-0.4031,-0.4032,-0.4033,-0.4086,-0.4087,-0.4087,-0.4088,-0.4155,-0.4156,-0.4158,0,0,0,0,0,0,0,0,0,0,0,0,0,-0.3932,-0.3887,-0.3965,-0.4001,-0.4005,-0.4031,-0.4032,-0.4033,-0.4086,-0.4087,-0.4088,-0.4088,-0.4154,-0.4156,-0.4158,-0.4154,0,0,-0.4164,-0.4165,0,0,0,0,0,0,0,0,-0.393,-0.3935,-0.3995,-0.3999,-0.4003,-0.4051,-0.4029,-0.4074,-0.4086,-0.4055,-0.4088,-0.4089,-0.412,-0.4125,-0.4135,-0.4157,-0.416,-0.4164,-0.4165,-0.4166,-0.4167,0,0,0,0,0,0,0,-0.3926,-0.3933,-0.3992,-0.3996,-0.4001,-0.4014,-0.4022,-0.4037,-0.4082,-0.4058,-0.4062,-0.4069,-0.4122,-0.4133,-0.4137,-0.4161,-0.4164,-0.4166,-0.4167,-0.4168,-0.4179,-0.4179,0,0,0,0,0,0,-0.3918,-0.393,-0.3989,-0.3994,-0.3968,-0.4015,-0.4023,-0.4035,-0.4082,-0.409,-0.4068,-0.4071,-0.413,-0.4135,-0.414,-0.4136,-0.4166,-0.4168,-0.4169,-0.418,-0.4179,-0.4178,0,0,0,0,0,0,-0.3916,-0.3922,-0.3987,-0.3963,-0.3972,-0.4015,-0.4028,-0.4036,-0.4047,-0.409,-0.4098,-0.4071,-0.4131,-0.4137,-0.4149,-0.4139,-0.4169,-0.4171,-0.4181,-0.418,-0.4179,-0.413,0,0,0,0,0,0,-0.3913,-0.3921,-0.392,-0.3962,-0.3973,-0.3995,-0.4028,-0.4037,-0.405,-0.4055,-0.4095,-0.4102,-0.4132,-0.4146,-0.4151,-0.4143,-0.4172,-0.4182,-0.4181,-0.4179,-0.4132,-0.4127,-0.4122,0,0,0,0,0,-0.391,-0.3905,-0.392,-0.3927,-0.3973,-0.3995,-0.4001,-0.4034,-0.4049,-0.4048,-0.4075,-0.4101,-0.414,-0.4147,-0.4153,-0.4145,-0.4183,-0.4181,-0.4179,-0.4135,-0.4128,-0.4122,0,0,0,0,0,0,-0.3861,-0.3911,-0.3929,-0.3937,-0.3961,-0.4004,-0.4004,-0.4027,-0.4047,-0.4051,-0.4092,-0.41,-0.4108,-0.4128,-0.4135,-0.4142,-0.4165,-0.4164,-0.4129,-0.4123,-0.4118,-0.4112,-0.4174,0,0,0,0,0,-0.3851,-0.3865,-0.3908,-0.391,-0.3921,-0.396,-0.3971,-0.3995,-0.4022,-0.4032,-0.4061,-0.4086,-0.4103,-0.4114,-0.4133,-0.4136,-0.4144,-0.4133,-0.4128,-0.4123,-0.4122,-0.4123,-0.4118,-0.4172,-0.4172,-0.4172,0,0,-0.3831,-0.386,-0.3866,-0.3901,-0.3923,-0.3935,-0.3969,-0.3981,-0.3991,-0.4034,-0.4047,-0.4068,-0.4099,-0.4106,-0.411,-0.4123,-0.4109,-0.4121,-0.4117,-0.4118,-0.412,-0.4115,-0.4111,-0.4171,-0.4171,-0.4171,0,0,-0.38,-0.3824,-0.3828,-0.3848,-0.388,-0.3906,-0.3906,-0.3945,-0.3961,-0.3974,-0.4007,-0.4019,-0.4049,-0.4069,-0.4083,-0.4057,-0.4081,-0.4062,-0.4035,-0.4036,-0.4032,-0.4028,-0.4018,-0.4013,-0.4061,-0.4061,-0.4061,0,-0.3771,-0.3792,-0.3827,-0.3837,-0.3851,-0.389,-0.3894,-0.3912,-0.3949,-0.3957,-0.3971,-0.4008,-0.4031,-0.4042,-0.4036,-0.4046,-0.4048,-0.4058,-0.4029,-0.4026,-0.4023,-0.4014,-0.401,-0.4058,-0.4058,-0.4059,-0.4059,0,-0.3754,-0.3767,-0.3766,-0.3799,-0.3813,-0.382,-0.3856,-0.3866,-0.3888,-0.3911,-0.3923,-0.3953,-0.3977,-0.3982,-0.4004,-0.3995,-0.4002,-0.4022,-0.4045,-0.4015,-0.4006,-0.4003,-0.4054,-0.4055,-0.4056,-0.4057,0,0,-0.3695,-0.3746,-0.3745,-0.376,-0.3797,-0.3808,-0.3816,-0.3839,-0.3846,-0.387,-0.3876,-0.39,-0.3918,-0.3934,-0.3958,-0.3959,-0.3935,-0.3979,-0.398,-0.3968,-0.3925,-0.3909,-0.3905,-0.3951,-0.395,-0.395,-0.3922,0,-0.367,-0.3686,-0.3717,-0.3723,-0.3735,-0.3772,-0.3778,-0.3801,-0.3823,-0.3836,-0.3861,-0.3876,-0.39,-0.3909,-0.3911,-0.3937,-0.3926,-0.394,-0.3957,-0.3957,-0.3947,-0.3901,-0.3884,-0.3857,-0.3919,-0.3919,-0.3918,0,-0.3643,-0.3663,-0.3669,-0.3704,-0.371,-0.3715,-0.3738,-0.3751,-0.3777,-0.3793,-0.3809,-0.3835,-0.3845,-0.3866,-0.3879,-0.3888,-0.3896,-0.391,-0.391,-0.3912,-0.3935,-0.3901,-0.3849,-0.3845,-0.3914,-0.3914,-0.3915,0,-0.3598,-0.3627,-0.3634,-0.3645,-0.3686,-0.3688,-0.3705,-0.3733,-0.3744,-0.3764,-0.3771,-0.3792,-0.3804,-0.3819,-0.385,-0.3863,-0.3858,-0.3883,-0.3871,-0.387,-0.3868,-0.3868,-0.3817,-0.3875,-0.3875,-0.3875,-0.3875,0,-0.3566,-0.3569,-0.3614,-0.3618,-0.3621,-0.3657,-0.3659,-0.368,-0.3703,-0.3711,-0.3744,-0.3752,-0.3792,-0.3804,-0.3828,-0.3834,-0.384,-0.3852,-0.3858,-0.3849,-0.3847,-0.3855,-0.3857,-0.3874,-0.3875,-0.3875,-0.3875,0,-0.3517,-0.3547,-0.3557,-0.3594,-0.3603,-0.3604,-0.3635,-0.364,-0.3664,-0.3674,-0.3678,-0.3715,-0.373,-0.3762,-0.3787,-0.3803,-0.3803,-0.3815,-0.3793,-0.3797,-0.3783,-0.3783,-0.3734,-0.3729,-0.3791,-0.3791,-0.379,0,-0.3494,-0.3497,-0.3533,-0.354,-0.3556,-0.3568,-0.3579,-0.3614,-0.3624,-0.3652,-0.3654,-0.3672,-0.3688,-0.371,-0.3739,-0.3757,-0.3769,-0.375,-0.3772,-0.3761,-0.3767,-0.3766,-0.3766,-0.3745,-0.3744,-0.3744,-0.3743,0,-0.3451,-0.3465,-0.348,-0.3498,-0.351,-0.3528,-0.3546,-0.3551,-0.3589,-0.3599,-0.3614,-0.3626,-0.365,-0.3667,-0.3689,-0.3707,-0.3731,-0.3736,-0.3734,-0.3724,-0.3711,-0.3716,-0.3779,-0.3737,-0.3738,-0.3738,-0.3738,-0.3739,-0.3414,-0.3417,-0.3442,-0.3456,-0.3473,-0.349,-0.3496,-0.3519,-0.3532,-0.3553,-0.3573,-0.3586,-0.3611,-0.3643,-0.3658,-0.3669,-0.3681,-0.3678,-0.3677,-0.3676,-0.3671,-0.3709,-0.3673,-0.3673,-0.3673,-0.3674,-0.3674,0,-0.3371,-0.3388,-0.3401,-0.3425,-0.3436,-0.3457,-0.3478,-0.3486,-0.3497,-0.3517,-0.3532,-0.3548,-0.3564,-0.3593,-0.3611,-0.3614,-0.3625,-0.3617,-0.3617,-0.362,-0.366,-0.3659,-0.3607,-0.3607,-0.3607,-0.3607,-0.3607,-0.3607,-0.3349,-0.3355,-0.3372,-0.3385,-0.3403,-0.3415,-0.3425,-0.344,-0.3456,-0.3473,-0.3486,-0.3504,-0.3528,-0.3547,-0.3562,-0.357,-0.3575,-0.3563,-0.3575,-0.3611,-0.3618,-0.3624,-0.3623,-0.3564,-0.3564,-0.3534,-0.3534,-0.3533]},{"header":{"parameterUnit":"m.s-1","parameterCategory":1,"la1":30.2991,"la2":30.254,"lo1":-89.0895,"lo2":-89.0444,"dy":0.0017,"dx":0.0017,"nx":28,"ny":28,"refTime":"2024-02-21T03:00:00:Z","depth":0,"parameterNumber":3,"parameterNumberName":"V-component_of_WINDS"},"data":[0,0,0,0,0,0,0,0,0,0,0,0,0,0,0,0,0,0,0,0,0,0,0,0,0,0,0,0,0,0,0,0,0,0,0,0,0,0,0,0,0,0,0,0,0,0,0,0,0,0,0,0,0,0,0,0,0,0,3.5786,3.5789,0,3.6036,3.6039,3.6042,3.6112,3.6111,3.611,3.6108,3.6363,3.6371,3.6379,0,0,0,0,0,0,0,0,0,0,0,0,0,3.5371,3.5378,3.5786,3.5789,3.5792,3.6036,3.6039,3.6043,3.6113,3.6111,3.6109,3.6108,3.636,3.637,3.6379,0,0,0,0,0,0,0,0,0,0,0,0,0,3.5579,3.5381,3.5785,3.5857,3.5865,3.6035,3.6039,3.6044,3.6113,3.6111,3.6109,3.6107,3.6357,3.6369,3.6381,3.6497,0,0,3.6418,3.6423,0,0,0,0,0,0,0,0,3.5567,3.5594,3.5843,3.5852,3.5862,3.6041,3.5986,3.6196,3.6114,3.6019,3.6108,3.6106,3.6257,3.6277,3.6329,3.6509,3.652,3.6419,3.6426,3.6431,3.6435,0,0,0,0,0,0,0,3.5553,3.5584,3.5885,3.5846,3.5858,3.5877,3.5904,3.6026,3.6147,3.6027,3.6033,3.6061,3.6262,3.6317,3.6335,3.6524,3.6418,3.6429,3.6437,3.6441,3.6818,3.682,0,0,0,0,0,0,3.5526,3.5571,3.5877,3.5892,3.5707,3.5886,3.5916,3.5986,3.6146,3.6168,3.6063,3.6064,3.6297,3.6321,3.6345,3.6496,3.6431,3.6442,3.6449,3.6815,3.6818,3.6821,0,0,0,0,0,0,3.5517,3.5553,3.5867,3.5734,3.5775,3.5895,3.5973,3.5992,3.6047,3.6173,3.6195,3.6097,3.6297,3.6328,3.646,3.6505,3.6448,3.6459,3.6812,3.6816,3.682,3.6795,0,0,0,0,0,0,3.5505,3.5549,3.5593,3.5734,3.5782,3.5977,3.5975,3.5998,3.6068,3.6071,3.621,3.6231,3.6297,3.6442,3.6472,3.6521,3.6468,3.6808,3.6814,3.6819,3.6793,3.6798,3.6803,0,0,0,0,0,3.549,3.5575,3.5595,3.5632,3.584,3.598,3.6007,3.6082,3.6071,3.6118,3.62,3.6227,3.6495,3.6455,3.6489,3.6542,3.6806,3.6812,3.6818,3.679,3.6797,3.6803,0,0,0,0,0,0,3.5435,3.5595,3.5619,3.5752,3.5852,3.5991,3.6052,3.6086,3.619,3.6189,3.6277,3.6308,3.6435,3.6502,3.6454,3.6667,3.6651,3.6665,3.6618,3.6626,3.663,3.6613,3.6478,0,0,0,0,0,3.5439,3.5538,3.5672,3.5777,3.5827,3.5931,3.5994,3.6044,3.615,3.6193,3.6284,3.6386,3.6495,3.6563,3.6669,3.6803,3.6836,3.6857,3.6862,3.6865,3.6876,3.6957,3.6969,3.6842,3.6842,3.6841,0,0,3.5447,3.5546,3.5604,3.5769,3.5852,3.5955,3.5966,3.6073,3.6151,3.6209,3.6341,3.6412,3.6532,3.6667,3.6731,3.6726,3.6919,3.6873,3.6875,3.6884,3.6964,3.6976,3.6987,3.6846,3.6845,3.6844,0,0,3.5515,3.5599,3.5698,3.5782,3.5909,3.5979,3.6002,3.6138,3.6188,3.6322,3.6369,3.6463,3.6646,3.6732,3.6799,3.6905,3.6935,3.6936,3.6963,3.704,3.705,3.706,3.7101,3.7115,3.6947,3.6947,3.6947,0,3.5509,3.5666,3.5744,3.5851,3.5924,3.5984,3.6086,3.6164,3.6318,3.6367,3.6361,3.6595,3.668,3.6838,3.6864,3.6915,3.6948,3.6921,3.7043,3.7053,3.7063,3.7103,3.7118,3.6946,3.6946,3.6946,3.6946,0,3.5654,3.5763,3.5827,3.5978,3.6058,3.6161,3.6257,3.6329,3.6373,3.6443,3.6582,3.6686,3.6817,3.6857,3.6899,3.7023,3.7017,3.7025,3.7012,3.7073,3.7113,3.7129,3.6945,3.6946,3.6946,3.6946,0,0,3.5694,3.5889,3.5912,3.5983,3.6129,3.6214,3.6322,3.6451,3.6513,3.6618,3.6713,3.6869,3.6879,3.6955,3.7008,3.7075,3.7158,3.7076,3.7081,3.7091,3.7306,3.73,3.7317,3.7179,3.7182,3.7185,3.7297,0,3.5783,3.5978,3.6054,3.6214,3.6317,3.6377,3.6472,3.6573,3.6642,3.6741,3.6818,3.6929,3.6932,3.6979,3.7049,3.7133,3.7203,3.7126,3.727,3.7274,3.724,3.7337,3.7331,3.7431,3.7312,3.7315,3.7317,0,3.5912,3.6022,3.6192,3.633,3.6376,3.646,3.6587,3.668,3.6796,3.6843,3.6931,3.698,3.7098,3.7077,3.7242,3.7188,3.7252,3.7303,3.7308,3.7326,3.73,3.736,3.7465,3.7481,3.7341,3.7339,3.7338,0,3.5929,3.6118,3.6246,3.6304,3.6467,3.6525,3.6596,3.6711,3.6785,3.6896,3.6946,3.7068,3.7136,3.723,3.7313,3.7289,3.7472,3.7456,3.7516,3.7514,3.7553,3.755,3.7672,3.7589,3.7589,3.7589,3.7588,0,3.6022,3.6124,3.6256,3.6335,3.6453,3.654,3.6655,3.673,3.6832,3.6928,3.6987,3.7075,3.7178,3.7281,3.7346,3.7475,3.7504,3.7547,3.7563,3.7543,3.7538,3.7587,3.7584,3.7593,3.7592,3.7591,3.759,0,3.606,3.6151,3.6296,3.6439,3.6478,3.6559,3.6683,3.6763,3.6837,3.6958,3.6991,3.7107,3.7232,3.7323,3.7483,3.7527,3.7667,3.7682,3.7628,3.7637,3.7692,3.7687,3.7852,3.788,3.7776,3.7777,3.7777,0,3.6114,3.6195,3.6349,3.6418,3.6489,3.6598,3.6676,3.6765,3.6844,3.6986,3.7049,3.7178,3.7286,3.7483,3.7582,3.7706,3.7726,3.7776,3.7745,3.7724,3.7731,3.7727,3.7737,3.778,3.7781,3.7782,3.7782,0,3.6202,3.6245,3.6354,3.648,3.6571,3.6675,3.6779,3.6832,3.6942,3.7027,3.7156,3.724,3.7406,3.7534,3.7669,3.7743,3.7782,3.7791,3.7812,3.7793,3.776,3.7783,3.7643,3.7787,3.7786,3.7786,3.7786,3.7786,3.6253,3.633,3.6451,3.6572,3.6661,3.6758,3.6842,3.6927,3.7036,3.7179,3.7226,3.736,3.7479,3.7665,3.7741,3.7848,3.7847,3.7876,3.7885,3.7891,3.7892,3.7741,3.7872,3.7872,3.7872,3.7872,3.7872,0,3.6347,3.6429,3.6539,3.6685,3.6781,3.681,3.6929,3.7008,3.7125,3.7233,3.734,3.749,3.7616,3.7726,3.7858,3.7923,3.7945,3.7955,3.7952,3.7969,3.7883,3.7854,3.7935,3.7935,3.7935,3.7935,3.7935,3.7935,3.6408,3.6541,3.6598,3.6777,3.6858,3.6991,3.7057,3.7148,3.7236,3.7401,3.7507,3.7578,3.7689,3.7829,3.7947,3.7977,3.8024,3.803,3.8064,3.7982,3.7975,3.7967,3.794,3.8039,3.8039,3.8142,3.8143,3.8144]}]]